Quincy, IL

10:53 AM CDT on August 19, 2017 (GMT -0500)
Quincy Regional-Baldwin

Weather History for KUIN - November, 2011

Change the Weather History Date:

Monday, November 7, 2011

  Actual Average Record
Temperature  
Mean Temperature 54 °F 47 °F  
Max Temperature 55 °F 56 °F 84 °F (1915)
Min Temperature 53 °F 38 °F 4 °F (1991)
Degree Days  
Heating Degree Days 11 18  
Month to date heating degree days 119  
Since 1 July heating degree days 543  
Cooling Degree Days 0 0  
Month to date cooling degree days 0  
Year to date cooling degree days 1093  
Growing Degree Days 4 (Base 50)    
Moisture  
Dew Point 52 °F    
Average Humidity 93    
Maximum Humidity 100    
Minimum Humidity 75    
Precipitation  
Precipitation 0.49 in 0.10 in 1.03 in (1938)
Month to date precipitation 0.71  
Year to date precipitation 32.77  
Sea Level Pressure  
Sea Level Pressure 30.11 in    
Wind  
Wind Speed 7 mph (ENE)    
Max Wind Speed 17 mph    
Max Gust Speed -    
Visibility 5 miles    
Events Rain    
T = Trace of Precipitation, MM = Missing Value Source: NWS Daily Summary

Daily Weather History Graph

Daily Weather History Graph

Search for Another Location

Airport or City:

Trip Planner

Search our weather history database for the weather conditions in past years. The results will help you decide how hot, cold, wet, or windy it might be!

Date:

Astronomy

Nov. 07, 2011 Rise Set
Actual Time 6:40 AM CST 4:56 PM CST
Civil Twilight 6:11 AM CST 5:24 PM CST
Nautical Twilight 5:39 AM CST 5:56 PM CST
Astronomical Twilight 5:07 AM CST 6:28 PM CST
Moon 3:07 PM CST (11/7) 3:43 AM CST (11/7)
Length of Visible Light 11h 12m
Length of Day
10h 15m
Waxing Gibbous, 92% of the Moon is Illuminated
Nov 7
Waxing Gibbous
Nov 10
Full
Nov 18
Last Quarter
Nov 25
New
Dec 2
First Quarter

Hourly Weather History & Observations

Time (CST) Temp. Dew Point Humidity Pressure Visibility Wind Dir Wind Speed Gust Speed Precip Events Conditions
12:54 AM 55.9 °F 48.0 °F 75% 30.10 in 10.0 mi SSW 6.9 mph - N/A   Mostly Cloudy
1:10 AM 55.4 °F 48.2 °F 77% 30.11 in 10.0 mi SW 6.9 mph - N/A   Overcast
1:35 AM 55.4 °F 48.2 °F 77% 30.11 in 10.0 mi SSW 6.9 mph - N/A   Overcast
1:44 AM 55.4 °F 48.2 °F 77% 30.11 in 10.0 mi SSW 5.8 mph - N/A   Overcast
1:54 AM 55.0 °F 48.0 °F 77% 30.11 in 10.0 mi South 5.8 mph - N/A   Overcast
2:20 AM 53.6 °F 48.2 °F 82% 30.11 in 10.0 mi South 4.6 mph - 0.00 in Rain Light Rain
2:54 AM 53.1 °F 50.0 °F 89% 30.11 in 9.0 mi SSW 3.5 mph - 0.01 in Rain Light Rain
3:08 AM 53.6 °F 50.0 °F 88% 30.12 in 10.0 mi Calm Calm - 0.00 in   Overcast
3:54 AM 54.0 °F 51.1 °F 90% 30.13 in 10.0 mi Calm Calm - 0.00 in   Overcast
4:45 AM 53.6 °F 51.8 °F 94% 30.14 in 5.0 mi South 4.6 mph - 0.04 in Rain Light Rain
4:54 AM 54.0 °F 52.0 °F 93% 30.14 in 5.0 mi South 4.6 mph - 0.05 in Rain Light Rain
5:21 AM 53.6 °F 51.8 °F 94% 30.14 in 5.0 mi SE 3.5 mph - 0.01 in Rain Light Rain
5:54 AM 53.6 °F 51.8 °F 94% 30.14 in 6.0 mi ESE 3.5 mph - N/A   Overcast
6:54 AM 53.6 °F 51.8 °F 94% 30.15 in 7.0 mi East 4.6 mph - N/A   Overcast
7:10 AM 53.6 °F 51.8 °F 94% 30.16 in 7.0 mi ESE 4.6 mph - N/A   Overcast
7:54 AM 53.1 °F 52.0 °F 96% 30.17 in 3.0 mi North 3.5 mph - 0.00 in   Overcast
7:58 AM 53.6 °F 51.8 °F 94% 30.18 in 2.5 mi NNE 3.5 mph - N/A   Overcast
8:54 AM 53.6 °F 51.8 °F 94% 30.18 in 2.0 mi NNE 6.9 mph - N/A   Overcast
9:10 AM 53.6 °F 51.8 °F 94% 30.18 in 1.5 mi NNE 6.9 mph - N/A   Overcast
9:54 AM 53.1 °F 52.0 °F 96% 30.17 in 2.0 mi ENE 6.9 mph - N/A   Overcast
10:05 AM 53.6 °F 51.8 °F 94% 30.17 in 3.0 mi ENE 6.9 mph - N/A   Overcast
10:54 AM 54.0 °F 53.1 °F 97% 30.17 in 5.0 mi East 4.6 mph - 0.00 in   Overcast
11:54 AM 55.0 °F 53.1 °F 93% 30.16 in 5.0 mi ENE 4.6 mph - N/A   Overcast
12:54 PM 55.0 °F 53.1 °F 93% 30.13 in 4.0 mi ENE 5.8 mph - N/A   Overcast
1:44 PM 55.4 °F 53.6 °F 94% 30.12 in 1.8 mi NE 8.1 mph - N/A   Overcast
1:54 PM 55.0 °F 53.1 °F 93% 30.12 in 1.0 mi NE 8.1 mph - N/A   Overcast
2:12 PM 55.4 °F 53.6 °F 94% 30.11 in 3.0 mi NE 8.1 mph - N/A   Overcast
2:54 PM 55.4 °F 53.6 °F 94% 30.11 in 4.0 mi ENE 10.4 mph - N/A   Overcast
3:54 PM 55.0 °F 53.1 °F 93% 30.11 in 5.0 mi ENE 9.2 mph - N/A   Overcast
4:25 PM 55.4 °F 53.6 °F 94% 30.11 in 7.0 mi ENE 9.2 mph - N/A   Overcast
4:54 PM 55.0 °F 53.1 °F 93% 30.11 in 5.0 mi ENE 9.2 mph - N/A   Overcast
5:50 PM 53.6 °F 53.6 °F 100% 30.10 in 5.0 mi ENE 9.2 mph - N/A   Overcast
5:54 PM 54.0 °F 53.1 °F 97% 30.10 in 5.0 mi East 8.1 mph - N/A   Overcast
6:54 PM 54.0 °F 53.1 °F 97% 30.09 in 1.8 mi ENE 10.4 mph - 0.01 in   Overcast
7:15 PM 53.6 °F 53.6 °F 100% 30.08 in 0.8 mi ENE 12.7 mph - N/A   Mist
7:54 PM 54.0 °F 53.1 °F 97% 30.05 in 1.0 mi ENE 13.8 mph - 0.01 in Rain Light Rain
8:14 PM 53.6 °F 53.6 °F 100% 30.04 in 0.8 mi ENE 16.1 mph - 0.01 in Rain Light Rain
8:24 PM 53.6 °F 53.6 °F 100% 30.03 in 1.2 mi ENE 15.0 mph - 0.03 in Rain Rain
8:54 PM 54.0 °F 53.1 °F 97% 30.04 in 2.0 mi ENE 15.0 mph - 0.33 in Rain Heavy Rain
8:58 PM 53.6 °F 53.6 °F 100% 30.04 in 3.0 mi ENE 17.3 mph - 0.01 in Rain Rain
9:13 PM 53.6 °F 51.8 °F 94% 30.04 in 7.0 mi ENE 9.2 mph - 0.02 in Rain Light Rain
9:39 PM 53.6 °F 53.6 °F 100% 30.04 in 5.0 mi NNE 10.4 mph - 0.07 in Rain Light Rain
9:54 PM 54.0 °F 52.0 °F 93% 30.04 in 9.0 mi NE 13.8 mph - 0.07 in   Overcast
10:54 PM 53.1 °F 52.0 °F 96% 30.02 in 6.0 mi NE 10.4 mph - 0.01 in Rain Light Rain
11:54 PM 53.1 °F 52.0 °F 96% 29.99 in 2.5 mi ENE 8.1 mph - 0.00 in   Overcast